����������;��������(kVARh)
2016-01-18 00:00;0
2016-01-18 00:15;0
2016-01-18 00:30;0
2016-01-18 00:45;0
2016-01-18 01:00;0
2016-01-18 01:15;0
2016-01-18 01:30;0
2016-01-18 01:45;0
2016-01-18 02:00;0
2016-01-18 02:15;0
2016-01-18 02:30;0
2016-01-18 02:45;0
2016-01-18 03:00;0,5
2016-01-18 03:15;1,1
2016-01-18 03:30;0,95
2016-01-18 03:45;1,05
2016-01-18 04:00;2,85
2016-01-18 04:15;1,1
2016-01-18 04:30;1
2016-01-18 04:45;4,15
2016-01-18 05:00;0,85
2016-01-18 05:15;0,05
2016-01-18 05:30;0
2016-01-18 05:45;0,05
2016-01-18 06:00;0
2016-01-18 06:15;1,05
2016-01-18 06:30;2,65
2016-01-18 06:45;0,7
2016-01-18 07:00;2,55
2016-01-18 07:15;18,85
2016-01-18 07:30;22,5
2016-01-18 07:45;23,55
2016-01-18 08:00;33,2
2016-01-18 08:15;29,45
2016-01-18 08:30;32,5
2016-01-18 08:45;34,4
2016-01-18 09:00;47,9
2016-01-18 09:15;52,85
2016-01-18 09:30;57,1
2016-01-18 09:45;58,1
2016-01-18 10:00;46,1
2016-01-18 10:15;46,15
2016-01-18 10:30;57,6
2016-01-18 10:45;67,05
2016-01-18 11:00;61,3
2016-01-18 11:15;60,7
2016-01-18 11:30;75,8
2016-01-18 11:45;74,2
2016-01-18 12:00;62,7
2016-01-18 12:15;60,4
2016-01-18 12:30;57,55
2016-01-18 12:45;65,6
2016-01-18 13:00;76
2016-01-18 13:15;71,7
2016-01-18 13:30;63,25
2016-01-18 13:45;60,15
2016-01-18 14:00;67,45
2016-01-18 14:15;64,5
2016-01-18 14:30;67,75
2016-01-18 14:45;72,9
2016-01-18 15:00;76,35
2016-01-18 15:15;68,85
2016-01-18 15:30;47,15
2016-01-18 15:45;27,35
2016-01-18 16:00;55,5
2016-01-18 16:15;47,05
2016-01-18 16:30;35,05
2016-01-18 16:45;33,45
2016-01-18 17:00;27,6
2016-01-18 17:15;21,3
2016-01-18 17:30;11,4
2016-01-18 17:45;37,75
2016-01-18 18:00;29,25
2016-01-18 18:15;19,7
2016-01-18 18:30;19,75
2016-01-18 18:45;20,4
2016-01-18 19:00;19,6
2016-01-18 19:15;17,9
2016-01-18 19:30;24,75
2016-01-18 19:45;25,35
2016-01-18 20:00;15,15
2016-01-18 20:15;16,75
2016-01-18 20:30;15,65
2016-01-18 20:45;15,25
2016-01-18 21:00;5,55
2016-01-18 21:15;8,6
2016-01-18 21:30;4,5
2016-01-18 21:45;1,15
2016-01-18 22:00;2,75
2016-01-18 22:15;4,6
2016-01-18 22:30;2,45
2016-01-18 22:45;6,25
2016-01-18 23:00;4,9
2016-01-18 23:15;11,5
2016-01-18 23:30;10,8
2016-01-18 23:45;4,35
2016-01-19 00:00;2,05
2016-01-19 00:15;4,45
2016-01-19 00:30;0,25
2016-01-19 00:45;0,1
2016-01-19 01:00;0
2016-01-19 01:15;0,2
2016-01-19 01:30;0,45
2016-01-19 01:45;0
2016-01-19 02:00;0
2016-01-19 02:15;0
2016-01-19 02:30;0,25
2016-01-19 02:45;0,3
2016-01-19 03:00;0,05
2016-01-19 03:15;0,05
2016-01-19 03:30;0,45
2016-01-19 03:45;0,55
2016-01-19 04:00;0,1
2016-01-19 04:15;0,15
2016-01-19 04:30;0,6
2016-01-19 04:45;0,55
2016-01-19 05:00;1,75
2016-01-19 05:15;0
2016-01-19 05:30;0,45
2016-01-19 05:45;0,45
2016-01-19 06:00;0,35
2016-01-19 06:15;1,1
2016-01-19 06:30;0,4
2016-01-19 06:45;5,5
2016-01-19 07:00;5,6
2016-01-19 07:15;6
2016-01-19 07:30;13,25
2016-01-19 07:45;12,05
2016-01-19 08:00;27,3
2016-01-19 08:15;28,65
2016-01-19 08:30;28,2
2016-01-19 08:45;32,25
2016-01-19 09:00;33,15
2016-01-19 09:15;32,3
2016-01-19 09:30;37,2
2016-01-19 09:45;44,25
2016-01-19 10:00;45
2016-01-19 10:15;50,65
2016-01-19 10:30;52,25
2016-01-19 10:45;51,8
2016-01-19 11:00;50,6
2016-01-19 11:15;57,2
2016-01-19 11:30;78,45
2016-01-19 11:45;77,95
2016-01-19 12:00;72,2
2016-01-19 12:15;83,55
2016-01-19 12:30;83,75
2016-01-19 12:45;78,7
2016-01-19 13:00;78,45
2016-01-19 13:15;79,15
2016-01-19 13:30;69,9
2016-01-19 13:45;64,05
2016-01-19 14:00;70,95
2016-01-19 14:15;78,15
2016-01-19 14:30;74,55
2016-01-19 14:45;69,15
2016-01-19 15:00;70,35
2016-01-19 15:15;60,7
2016-01-19 15:30;55,4
2016-01-19 15:45;54,7
2016-01-19 16:00;54,5
2016-01-19 16:15;44,05
2016-01-19 16:30;39,3
2016-01-19 16:45;37,4
2016-01-19 17:00;34,2
2016-01-19 17:15;30,55
2016-01-19 17:30;39,5
2016-01-19 17:45;34,9
2016-01-19 18:00;26,1
2016-01-19 18:15;21,9
2016-01-19 18:30;21,7
2016-01-19 18:45;23,9
2016-01-19 19:00;27
2016-01-19 19:15;23
2016-01-19 19:30;22,25
2016-01-19 19:45;27,05
2016-01-19 20:00;23,35
2016-01-19 20:15;22,6
2016-01-19 20:30;22,45
2016-01-19 20:45;22,05
2016-01-19 21:00;23,35
2016-01-19 21:15;23,4
2016-01-19 21:30;19,3
2016-01-19 21:45;21,45
2016-01-19 22:00;15
2016-01-19 22:15;12,8
2016-01-19 22:30;8,25
2016-01-19 22:45;8,2
2016-01-19 23:00;10,5
2016-01-19 23:15;11,75
2016-01-19 23:30;11,75
2016-01-19 23:45;14,25
2016-01-20 00:00;1,5
2016-01-20 00:15;1,7
2016-01-20 00:30;0,05
2016-01-20 00:45;0
2016-01-20 01:00;0
2016-01-20 01:15;0
2016-01-20 01:30;0,2
2016-01-20 01:45;0
2016-01-20 02:00;0,4
2016-01-20 02:15;0,35
2016-01-20 02:30;0
2016-01-20 02:45;0
2016-01-20 03:00;0,05
2016-01-20 03:15;0,4
2016-01-20 03:30;0
2016-01-20 03:45;0,8
2016-01-20 04:00;4,05
2016-01-20 04:15;3,65
2016-01-20 04:30;1,9
2016-01-20 04:45;5,4
2016-01-20 05:00;6,75
2016-01-20 05:15;2,15
2016-01-20 05:30;8,8
2016-01-20 05:45;8,05
2016-01-20 06:00;8,25
2016-01-20 06:15;8,65
2016-01-20 06:30;11,75
2016-01-20 06:45;10,9
2016-01-20 07:00;7,15
2016-01-20 07:15;7,85
2016-01-20 07:30;9,85
2016-01-20 07:45;15,85
2016-01-20 08:00;19,55
2016-01-20 08:15;22,15
2016-01-20 08:30;30,55
2016-01-20 08:45;44,6
2016-01-20 09:00;47,4
2016-01-20 09:15;53,7
2016-01-20 09:30;58,6
2016-01-20 09:45;57,6
2016-01-20 10:00;66,15
2016-01-20 10:15;74,5
2016-01-20 10:30;53,05
2016-01-20 10:45;70,25
2016-01-20 11:00;80,2
2016-01-20 11:15;90,2
2016-01-20 11:30;84,75
2016-01-20 11:45;67
2016-01-20 12:00;78,95
2016-01-20 12:15;77,55
2016-01-20 12:30;79,25
2016-01-20 12:45;78,55
2016-01-20 13:00;73,95
2016-01-20 13:15;65,6
2016-01-20 13:30;63
2016-01-20 13:45;75,8
2016-01-20 14:00;61,3
2016-01-20 14:15;67,1
2016-01-20 14:30;61,7
2016-01-20 14:45;57,35
2016-01-20 15:00;51,2
2016-01-20 15:15;42,35
2016-01-20 15:30;47,8
2016-01-20 15:45;47,5
2016-01-20 16:00;45
2016-01-20 16:15;42
2016-01-20 16:30;42,25
2016-01-20 16:45;40,4
2016-01-20 17:00;37,25
2016-01-20 17:15;34,3
2016-01-20 17:30;29,05
2016-01-20 17:45;28,05
2016-01-20 18:00;29,8
2016-01-20 18:15;34,2
2016-01-20 18:30;33,6
2016-01-20 18:45;32,6
2016-01-20 19:00;33,05
2016-01-20 19:15;31
2016-01-20 19:30;29
2016-01-20 19:45;29,9
2016-01-20 20:00;27,05
2016-01-20 20:15;29,35
2016-01-20 20:30;23,95
2016-01-20 20:45;22,45
2016-01-20 21:00;24,3
2016-01-20 21:15;24,6
2016-01-20 21:30;13,7
2016-01-20 21:45;10,7
2016-01-20 22:00;4,35
2016-01-20 22:15;1
2016-01-20 22:30;0,9
2016-01-20 22:45;0,65
2016-01-20 23:00;0,55
2016-01-20 23:15;0,05
2016-01-20 23:30;0,05
2016-01-20 23:45;0
2016-01-21 00:00;0
2016-01-21 00:15;0
2016-01-21 00:30;0
2016-01-21 00:45;0
2016-01-21 01:00;0
2016-01-21 01:15;0
2016-01-21 01:30;0
2016-01-21 01:45;0
2016-01-21 02:00;0
2016-01-21 02:15;0
2016-01-21 02:30;0
2016-01-21 02:45;0
2016-01-21 03:00;0,1
2016-01-21 03:15;0
2016-01-21 03:30;0
2016-01-21 03:45;0
2016-01-21 04:00;0,1
2016-01-21 04:15;0
2016-01-21 04:30;1,2
2016-01-21 04:45;0,8
2016-01-21 05:00;1,7
2016-01-21 05:15;0,7
2016-01-21 05:30;6,65
2016-01-21 05:45;5,1
2016-01-21 06:00;19,3
2016-01-21 06:15;23,35
2016-01-21 06:30;18,65
2016-01-21 06:45;13,9
2016-01-21 07:00;11,75
2016-01-21 07:15;17,9
2016-01-21 07:30;16,8
2016-01-21 07:45;20,75
2016-01-21 08:00;26,2
2016-01-21 08:15;28,05
2016-01-21 08:30;30,15
2016-01-21 08:45;41,6
2016-01-21 09:00;38,25
2016-01-21 09:15;43,2
2016-01-21 09:30;46,45
2016-01-21 09:45;52,85
2016-01-21 10:00;57
2016-01-21 10:15;52,6
2016-01-21 10:30;59,5
2016-01-21 10:45;55,35
2016-01-21 11:00;56,6
2016-01-21 11:15;66,65
2016-01-21 11:30;63,95
2016-01-21 11:45;53,55
2016-01-21 12:00;65,9
2016-01-21 12:15;62,05
2016-01-21 12:30;50,9
2016-01-21 12:45;50,65
2016-01-21 13:00;56,4
2016-01-21 13:15;58
2016-01-21 13:30;61,15
2016-01-21 13:45;61,45
2016-01-21 14:00;65
2016-01-21 14:15;52,25
2016-01-21 14:30;54,15
2016-01-21 14:45;52,35
2016-01-21 15:00;58,55
2016-01-21 15:15;51,8
2016-01-21 15:30;48,3
2016-01-21 15:45;50,9
2016-01-21 16:00;47
2016-01-21 16:15;48,45
2016-01-21 16:30;49,8
2016-01-21 16:45;47,45
2016-01-21 17:00;51,85
2016-01-21 17:15;48,3
2016-01-21 17:30;42,6
2016-01-21 17:45;39
2016-01-21 18:00;38,65
2016-01-21 18:15;41,55
2016-01-21 18:30;38,75
2016-01-21 18:45;35,1
2016-01-21 19:00;24,4
2016-01-21 19:15;18,7
2016-01-21 19:30;20,5
2016-01-21 19:45;19,45
2016-01-21 20:00;16,55
2016-01-21 20:15;14,3
2016-01-21 20:30;15,1
2016-01-21 20:45;14,3
2016-01-21 21:00;12,55
2016-01-21 21:15;6,1
2016-01-21 21:30;3,6
2016-01-21 21:45;1,9
2016-01-21 22:00;2,15
2016-01-21 22:15;1,5
2016-01-21 22:30;1,9
2016-01-21 22:45;0,05
2016-01-21 23:00;0,45
2016-01-21 23:15;0,05
2016-01-21 23:30;0,15
2016-01-21 23:45;0,1
2016-01-22 00:00;0,1
2016-01-22 00:15;0
2016-01-22 00:30;0
2016-01-22 00:45;0
2016-01-22 01:00;0
2016-01-22 01:15;0
2016-01-22 01:30;0
2016-01-22 01:45;0
2016-01-22 02:00;0
2016-01-22 02:15;0
2016-01-22 02:30;0
2016-01-22 02:45;0
2016-01-22 03:00;0
2016-01-22 03:15;0
2016-01-22 03:30;0
2016-01-22 03:45;0
2016-01-22 04:00;0
2016-01-22 04:15;0
2016-01-22 04:30;0
2016-01-22 04:45;0,05
2016-01-22 05:00;0,05
2016-01-22 05:15;0
2016-01-22 05:30;0
2016-01-22 05:45;0
2016-01-22 06:00;0
2016-01-22 06:15;0
2016-01-22 06:30;0
2016-01-22 06:45;0
2016-01-22 07:00;0,05
2016-01-22 07:15;1,7
2016-01-22 07:30;7,45
2016-01-22 07:45;9,8
2016-01-22 08:00;18,15
2016-01-22 08:15;29,3
2016-01-22 08:30;33
2016-01-22 08:45;32,15
2016-01-22 09:00;37,95
2016-01-22 09:15;30,35
2016-01-22 09:30;35,95
2016-01-22 09:45;35,95
2016-01-22 10:00;58,8
2016-01-22 10:15;71,7
2016-01-22 10:30;65
2016-01-22 10:45;65,4
2016-01-22 11:00;55,25
2016-01-22 11:15;53,85
2016-01-22 11:30;55,2
2016-01-22 11:45;64,8
2016-01-22 12:00;65,1
2016-01-22 12:15;65,6
2016-01-22 12:30;65,15
2016-01-22 12:45;66,5
2016-01-22 13:00;66,05
2016-01-22 13:15;61,1
2016-01-22 13:30;61,4
2016-01-22 13:45;59,5
2016-01-22 14:00;65,4
2016-01-22 14:15;60,2
2016-01-22 14:30;59,2
2016-01-22 14:45;64,7
2016-01-22 15:00;55,7
2016-01-22 15:15;51,9
2016-01-22 15:30;52,15
2016-01-22 15:45;48,4
2016-01-22 16:00;45,3
2016-01-22 16:15;35,6
2016-01-22 16:30;33,3
2016-01-22 16:45;33,45
2016-01-22 17:00;28,8
2016-01-22 17:15;27,6
2016-01-22 17:30;27,7
2016-01-22 17:45;24,5
2016-01-22 18:00;24,15
2016-01-22 18:15;25,55
2016-01-22 18:30;20,65
2016-01-22 18:45;20,05
2016-01-22 19:00;21,15
2016-01-22 19:15;22,25
2016-01-22 19:30;17,75
2016-01-22 19:45;17,45
2016-01-22 20:00;13,6
2016-01-22 20:15;11,55
2016-01-22 20:30;14,25
2016-01-22 20:45;12,15
2016-01-22 21:00;14,75
2016-01-22 21:15;10,35
2016-01-22 21:30;9,1
2016-01-22 21:45;0,85
2016-01-22 22:00;1,65
2016-01-22 22:15;1,1
2016-01-22 22:30;1,3
2016-01-22 22:45;0,8
2016-01-22 23:00;0,55
2016-01-22 23:15;0,4
2016-01-22 23:30;0
2016-01-22 23:45;0,05
2016-01-23 00:00;0,2
2016-01-23 00:15;0,3
2016-01-23 00:30;0
2016-01-23 00:45;0,15
2016-01-23 01:00;0
2016-01-23 01:15;0
2016-01-23 01:30;0
2016-01-23 01:45;0
2016-01-23 02:00;0
2016-01-23 02:15;0
2016-01-23 02:30;0
2016-01-23 02:45;0
2016-01-23 03:00;0
2016-01-23 03:15;0
2016-01-23 03:30;0
2016-01-23 03:45;0
2016-01-23 04:00;0
2016-01-23 04:15;0
2016-01-23 04:30;0
2016-01-23 04:45;0
2016-01-23 05:00;0
2016-01-23 05:15;0
2016-01-23 05:30;0
2016-01-23 05:45;0
2016-01-23 06:00;0
2016-01-23 06:15;0
2016-01-23 06:30;0
2016-01-23 06:45;0
2016-01-23 07:00;0
2016-01-23 07:15;0
2016-01-23 07:30;0
2016-01-23 07:45;0
2016-01-23 08:00;0
2016-01-23 08:15;0
2016-01-23 08:30;0
2016-01-23 08:45;0
2016-01-23 09:00;0
2016-01-23 09:15;0
2016-01-23 09:30;0
2016-01-23 09:45;0
2016-01-23 10:00;0
2016-01-23 10:15;0
2016-01-23 10:30;0
2016-01-23 10:45;0,95
2016-01-23 11:00;0,15
2016-01-23 11:15;0
2016-01-23 11:30;0
2016-01-23 11:45;0
2016-01-23 12:00;0
2016-01-23 12:15;0,7
2016-01-23 12:30;1,3
2016-01-23 12:45;1,15
2016-01-23 13:00;1,25
2016-01-23 13:15;0,8
2016-01-23 13:30;0,5
2016-01-23 13:45;0,95
2016-01-23 14:00;0,2
2016-01-23 14:15;3,9
2016-01-23 14:30;4,1
2016-01-23 14:45;0,55
2016-01-23 15:00;3,5
2016-01-23 15:15;5,75
2016-01-23 15:30;6,5
2016-01-23 15:45;5,7
2016-01-23 16:00;7,25
2016-01-23 16:15;5,8
2016-01-23 16:30;6,45
2016-01-23 16:45;6,65
2016-01-23 17:00;11,2
2016-01-23 17:15;10,6
2016-01-23 17:30;3,1
2016-01-23 17:45;2,2
2016-01-23 18:00;1,8
2016-01-23 18:15;0,5
2016-01-23 18:30;0,95
2016-01-23 18:45;0,5
2016-01-23 19:00;1,55
2016-01-23 19:15;0,8
2016-01-23 19:30;0,95
2016-01-23 19:45;1,15
2016-01-23 20:00;1,5
2016-01-23 20:15;0,2
2016-01-23 20:30;1,3
2016-01-23 20:45;2,4
2016-01-23 21:00;4,85
2016-01-23 21:15;0,55
2016-01-23 21:30;3,3
2016-01-23 21:45;0,1
2016-01-23 22:00;0,3
2016-01-23 22:15;0,05
2016-01-23 22:30;0
2016-01-23 22:45;0
2016-01-23 23:00;0
2016-01-23 23:15;0
2016-01-23 23:30;0
2016-01-23 23:45;0
2016-01-24 00:00;0
2016-01-24 00:15;0
2016-01-24 00:30;0
2016-01-24 00:45;0
2016-01-24 01:00;0
2016-01-24 01:15;0
2016-01-24 01:30;0
2016-01-24 01:45;0
2016-01-24 02:00;0
2016-01-24 02:15;0
2016-01-24 02:30;0
2016-01-24 02:45;0
2016-01-24 03:00;0
2016-01-24 03:15;0
2016-01-24 03:30;0
2016-01-24 03:45;0
2016-01-24 04:00;0,15
2016-01-24 04:15;0
2016-01-24 04:30;0,8
2016-01-24 04:45;0
2016-01-24 05:00;0,85
2016-01-24 05:15;0,2
2016-01-24 05:30;0,05
2016-01-24 05:45;0,05
2016-01-24 06:00;0,2
2016-01-24 06:15;0,95
2016-01-24 06:30;1,75
2016-01-24 06:45;0,45
2016-01-24 07:00;0
2016-01-24 07:15;0
2016-01-24 07:30;0
2016-01-24 07:45;0
2016-01-24 08:00;0
2016-01-24 08:15;0
2016-01-24 08:30;0
2016-01-24 08:45;0
2016-01-24 09:00;0
2016-01-24 09:15;0
2016-01-24 09:30;0
2016-01-24 09:45;0
2016-01-24 10:00;0
2016-01-24 10:15;0
2016-01-24 10:30;0,95
2016-01-24 10:45;0,45
2016-01-24 11:00;0,95
2016-01-24 11:15;0,15
2016-01-24 11:30;0
2016-01-24 11:45;0
2016-01-24 12:00;0
2016-01-24 12:15;0
2016-01-24 12:30;0
2016-01-24 12:45;0
2016-01-24 13:00;0
2016-01-24 13:15;0,05
2016-01-24 13:30;0
2016-01-24 13:45;0,05
2016-01-24 14:00;0,5
2016-01-24 14:15;1,15
2016-01-24 14:30;0,2
2016-01-24 14:45;0,1
2016-01-24 15:00;0,3
2016-01-24 15:15;0,85
2016-01-24 15:30;1,3
2016-01-24 15:45;1,35
2016-01-24 16:00;0,65
2016-01-24 16:15;1,25
2016-01-24 16:30;2,5
2016-01-24 16:45;1,35
2016-01-24 17:00;1,85
2016-01-24 17:15;0,6
2016-01-24 17:30;1,6
2016-01-24 17:45;0,15
2016-01-24 18:00;0
2016-01-24 18:15;0
2016-01-24 18:30;0
2016-01-24 18:45;0
2016-01-24 19:00;0,05
2016-01-24 19:15;0
2016-01-24 19:30;0
2016-01-24 19:45;0
2016-01-24 20:00;0
2016-01-24 20:15;0
2016-01-24 20:30;0,1
2016-01-24 20:45;0,05
2016-01-24 21:00;0,45
2016-01-24 21:15;0,35
2016-01-24 21:30;0,6
2016-01-24 21:45;0,4
2016-01-24 22:00;0,5
2016-01-24 22:15;0,25
2016-01-24 22:30;0,05
2016-01-24 22:45;0,55
2016-01-24 23:00;0
2016-01-24 23:15;0
2016-01-24 23:30;0
2016-01-24 23:45;0

